Regional Weather Roundup
Issued by NWS

Home | Current Version | Previous Version | Text Only | Print | Product List | Glossary Off
Versions: 1 2 3 4 5 6 7 8 9 10 11 12 13 14 15 16 17 18 19 20 21 22 23 24 25 26 27 28 29 30 31 32 33 34 35 36 37 38 39 40 41 42 43 44 45 46 47 48 49 50

000
ASUS44 KMEG 230010
RWRTN
TENNESSEE HOURLY STATE WEATHER ROUNDUP
NATIONAL WEATHER SERVICE MEMPHIS TN
600 PM CST MON DEC 22 2014

TNZ002-004-019-021-049-052-054-088>092-230100-
WEST TENNESSEE

CITY           SKY/WX    TMP DP  RH WIND       PRES   REMARKS
MEMPHIS INTL   CLOUDY    57  53  86 S8        29.62R
NWS MEMPHIS      N/A     55 N/A N/A MISG        N/A
JACKSON        CLOUDY    55  51  86 S10G20    29.63R
DYERSBURG      CLOUDY    54  41  62 SE8       29.63S
UNION CITY     CLOUDY    52  50  93 SE9       29.61S
PARIS          CLOUDY    50  48  93 SE9       29.63F
HUNTINGDON     CLOUDY    51  49  93 SE9       29.63F
LEXINGTON      CLOUDY    52  48  87 SE9       29.64F
SAVANNAH       CLOUDY    52  52 100 SE9       29.67F
$$

TNZ008-025-027-028-033-062-065-066-230100-
NORTH MIDDLE TENNESSEE

CITY           SKY/WX    TMP DP  RH WIND       PRES   REMARKS
NASHVILLE      CLOUDY    52  48  86 SE12      29.74S
CLARKSVILLE    CLOUDY    53  48  83 SE14      29.67F
SMYRNA         CLOUDY    52  49  89 S8        29.75F
COOKEVILLE     MOCLDY    52  48  87 S8        29.77S
CROSSVILLE     CLOUDY    50  45  83 S7        29.81F
$$

TNZ061-075-076-078-094-096-097-230100-
SOUTH MIDDLE TENNESSEE

CITY           SKY/WX    TMP DP  RH WIND       PRES   REMARKS
FAYETTEVILLE   CLOUDY    48  46  93 MISG      29.75S
TULLAHOMA      CLOUDY    48  46  93 SE8       29.77F
WINCHESTER     MOCLDY    48  46  93 SE17      29.77F
MCMINNVILLE    CLOUDY    52  52 100 CALM      29.77F
COLUMBIA       CLOUDY   N/A N/A N/A SE8       29.70S
SHELBYVILLE    CLOUDY    52  48  87 SE8       29.75F
$$

TNZ017-018-042-046-047-230100-
NORTHEAST TENNESSEE

CITY           SKY/WX    TMP DP  RH WIND       PRES   REMARKS
TRI CITIES     PTCLDY    49  40  71 NE5       29.90R
ELIZABETHTON   PTCLDY    48  39  71 E5        29.92R
$$

TNZ012-013-036-069-073-074-230100-
CENTRAL EAST TENNESSEE

CITY           SKY/WX    TMP DP  RH WIND       PRES   REMARKS
KNOXVILLE      CLOUDY    52  45  77 W5        29.84R
OAK RIDGE      LGT RAIN  52  44  74 CALM      29.86R
GATLINBURG     PTCLDY    48  43  81 CALM      29.85R
MORRISTOWN     MOCLDY    52  43  71 E6        29.87R
$$

TNZ083-085-099-230100-
SOUTHEAST TENNESSEE

CITY           SKY/WX    TMP DP  RH WIND       PRES   REMARKS
CHATTANOOGA    CLOUDY    49  45  86 S7        29.85S
$$

SKY/WX REPORTED AS FAIR MEANS FEW OR NO CLOUDS BELOW
12 THOUSAND FEET.



USA.gov is the U.S. government's official web portal to all federal, state and local government web resources and services.